Weather History for Craig, CO

Change the Weather History Date:

Friday, September 21, 2012

  Actual Average Record
Temperature  
Mean Temperature 54 °F 53 °F  
Max Temperature 79 °F 72 °F 82 °F (2010)
Min Temperature 29 °F 35 °F 24 °F (1999)
Degree Days  
Heating Degree Days 11 12  
Month to date heating degree days 142 164  
Since 1 July heating degree days 150 241  
Cooling Degree Days 0 0  
Month to date cooling degree days 2 0  
Year to date cooling degree days 344 140  
Growing Degree Days 4 (Base 50)    
Moisture  
Dew Point 25 °F    
Average Humidity 42    
Maximum Humidity 72    
Minimum Humidity 11    
Precipitation  
Precipitation 0.00 in 0.07 in 0.56 in (2000)
Month to date precipitation 0.90 1.33  
Year to date precipitation 4.14 11.39  
Sea Level Pressure  
Sea Level Pressure 30.17 in    
Wind  
Wind Speed 1 mph (NW)    
Max Wind Speed 13 mph    
Max Gust Speed 15 mph    
Visibility 9 miles    
Events      
T = Trace of Precipitation, MM = Missing Value Source: NWS Daily Summary

Daily Weather History Graph

Daily Weather History Graph

Search for Another Location

Airport:

Trip Planner

Search our weather history database for the weather conditions in past years. The results will help you decide how hot, cold, wet, or windy it might be!

Date:

Astronomy

Sep. 21, 2012 Rise Set
Actual Time 6:57 AM MDT 7:07 PM MDT
Civil Twilight 6:29 AM MDT 7:35 PM MDT
Nautical Twilight 5:58 AM MDT 8:07 PM MDT
Astronomical Twilight 5:25 AM MDT 8:39 PM MDT
Moon 1:22 PM MDT (9/21) 11:10 PM MDT (9/21)
Length of Visible Light 13h 05m
Length of Day
12h 10m
Waxing Crescent, 38% of the Moon is Illuminated
Sep 21
Waxing Crescent
Sep 22
First Quarter
Sep 29
Full
Oct 8
Last Quarter
Oct 15
New

Hourly Weather History & Observations

Time (MDT) Temp. Windchill Dew Point Humidity Pressure Visibility Wind Dir Wind Speed Gust Speed Precip Events Conditions
12:53 AM 39.0 °F - 27.0 °F 62% 30.14 in 10.0 mi Calm Calm - N/A   Clear
1:53 AM 37.0 °F - 27.0 °F 67% 30.14 in 10.0 mi Calm Calm - N/A   Clear
2:53 AM 35.1 °F 32.2 °F 27.0 °F 72% 30.15 in 10.0 mi North 3.5 mph - N/A   Clear
3:53 AM 37.0 °F - 27.0 °F 67% 30.14 in 10.0 mi Calm Calm - N/A   Clear
4:53 AM 32.0 °F - 24.1 °F 73% 30.17 in 10.0 mi Calm Calm - N/A   Clear
5:53 AM 32.0 °F - 24.1 °F 73% 30.19 in 10.0 mi Calm Calm - N/A   Clear
6:53 AM 32.0 °F - 23.0 °F 69% 30.23 in 10.0 mi Calm Calm - N/A   Clear
7:53 AM 33.1 °F - 25.0 °F 72% 30.29 in 10.0 mi Calm Calm - N/A   Clear
8:53 AM 42.1 °F - 28.0 °F 58% 30.29 in 10.0 mi Calm Calm - N/A   Clear
9:53 AM 50.0 °F - 28.0 °F 43% 30.27 in 10.0 mi Calm Calm - N/A   Clear
10:53 AM 61.0 °F - 28.0 °F 29% 30.23 in 10.0 mi Calm Calm - N/A   Clear
11:53 AM 68.0 °F - 24.1 °F 19% 30.19 in 8.0 mi Calm Calm - N/A   Clear
12:53 PM 73.0 °F - 24.1 °F 16% 30.17 in 7.0 mi WNW 5.8 mph - N/A   Clear
1:53 PM 75.0 °F - 24.1 °F 15% 30.14 in 8.0 mi Variable 3.5 mph - N/A   Clear
2:53 PM 77.0 °F - 21.9 °F 13% 30.11 in 8.0 mi Variable 5.8 mph - N/A   Clear
3:53 PM 79.0 °F - 21.0 °F 12% 30.08 in 8.0 mi Calm Calm - N/A   Clear
4:53 PM 78.1 °F - 19.9 °F 11% 30.09 in 9.0 mi West 4.6 mph - N/A   Clear
5:53 PM 75.9 °F - 21.0 °F 13% 30.10 in 9.0 mi Calm Calm - N/A   Clear
6:53 PM 70.0 °F - 28.9 °F 22% 30.13 in 9.0 mi North 3.5 mph - N/A   Clear
7:53 PM 57.9 °F - 24.1 °F 27% 30.18 in 10.0 mi Calm Calm - N/A   Clear
8:53 PM 51.1 °F - 24.1 °F 35% 30.18 in 10.0 mi Calm Calm - N/A   Clear
9:53 PM 46.9 °F - 27.0 °F 46% 30.17 in 10.0 mi Calm Calm - N/A   Clear
10:53 PM 48.0 °F - 28.0 °F 46% 30.14 in 10.0 mi Calm Calm - N/A   Clear
11:53 PM 42.1 °F - 27.0 °F 55% 30.14 in 10.0 mi Calm Calm - N/A   Clear